sat.trackr.live / text

‹ back to catalog

SES-3

NORAD 37748 · 2011-035A

PAYLOAD ACTIVE UNKNOWN

§ Identity

Operator
Country
US
Launch date
2011-07-15
Launch site
TYMSC
Launch vehicle
Mass (kg)
RCS (m²)
19.95

Purposes: comms

External: N2YO · Heavens-Above · Gunter

§ Orbital elements

Epoch: 2026-09-10T05:25:18.107328Z

Period
1,436.10 min
Inclination
1.5405°
Eccentricity
0.0002521
Mean motion
1.00271452 rev/d
Perigee alt
35,776.1 km
Apogee alt
35,797.3 km
Semi-major
42,164.8 km
B*
0.0000e+0
RAAN
82.0069°
Arg perigee
108.9773°
Mean anomaly
136.6017°
Rev number
5,544

§ Raw data

SES-31 37748U 11035A   26253.22590402 -.00000121  00000+0  00000+0 0  99942 37748   1.5405  82.0069 0002521 108.9773 136.6017  1.00271452 55440

JSON: /api/v1/satellites/37748 · /tle

For live sub-satellite position, see the globe view (requires WebGL).

§ Visibility from observer

Set your observer location to see the next 7 days of passes ≥ 10°. The values pass through the URL so the page stays shareable.

No JS? Fill the form by hand. The geolocation button needs JavaScript.